Stündliche Wetter Bolshie Matveevichi

Heute, 29 Juli, Donnerstag

Zeit Temperatur Niederschläge Wind Luftdruck Luftfeuchtigkeit
00:00 +21°C° 0 mm 2 m/S 745 mmHg 72%
01:00 +21°C° 0 mm 2 m/S 744 mmHg 73%
02:00 +20°C° 0 mm 2 m/S 744 mmHg 77%
03:00 +20°C° 0.1 mm 2 m/S 744 mmHg 80%
04:00 +20°C° 0.1 mm 1 m/S 744 mmHg 84%
05:00 +20°C° 0.1 mm 1 m/S 743 mmHg 87%
06:00 +20°C° 0.9 mm 1 m/S 743 mmHg 89%
07:00 +21°C° 0.9 mm 1 m/S 744 mmHg 90%
08:00 +20°C° 0 mm 2 m/S 744 mmHg 93%
09:00 +23°C° 0.1 mm 2 m/S 744 mmHg 87%
10:00 +24°C° 0.1 mm 3 m/S 744 mmHg 81%
11:00 +25°C° 0.1 mm 4 m/S 744 mmHg 75%
12:00 +26°C° 0.2 mm 4 m/S 744 mmHg 73%
13:00 +26°C° 0.2 mm 5 m/S 744 mmHg 70%
14:00 +26°C° 0 mm 5 m/S 744 mmHg 68%
15:00 +27°C° 0.1 mm 5 m/S 744 mmHg 65%
16:00 +27°C° 0.1 mm 4 m/S 744 mmHg 61%
17:00 +28°C° 0.1 mm 4 m/S 744 mmHg 58%
18:00 +26°C° 0 mm 3 m/S 744 mmHg 63%
19:00 +24°C° 0 mm 3 m/S 744 mmHg 67%
20:00 +21°C° 0 mm 2 m/S 744 mmHg 72%
21:00 +21°C° 0 mm 2 m/S 744 mmHg 70%
22:00 +21°C° 0 mm 2 m/S 744 mmHg 67%
23:00 +21°C° 0 mm 2 m/S 745 mmHg 65%

Morgen, 30 Juli, Freitag

Zeit Temperatur Niederschläge Wind Luftdruck Luftfeuchtigkeit
00:00 +20°C° 0 mm 2 m/S 745 mmHg 69%
01:00 +19°C° 0 mm 3 m/S 745 mmHg 73%
02:00 +18°C° 0 mm 3 m/S 745 mmHg 76%
03:00 +18°C° 0 mm 3 m/S 745 mmHg 78%
04:00 +18°C° 0 mm 3 m/S 745 mmHg 79%
05:00 +17°C° 0 mm 3 m/S 745 mmHg 80%
06:00 +18°C° 0 mm 3 m/S 745 mmHg 77%
07:00 +19°C° 0 mm 3 m/S 745 mmHg 74%
08:00 +20°C° 0 mm 3 m/S 745 mmHg 72%
09:00 +22°C° 0 mm 3 m/S 745 mmHg 66%
10:00 +24°C° 0 mm 3 m/S 745 mmHg 59%
11:00 +25°C° 0 mm 4 m/S 745 mmHg 53%
12:00 +25°C° 0 mm 3 m/S 745 mmHg 55%
13:00 +25°C° 0 mm 3 m/S 744 mmHg 57%
14:00 +26°C° 0 mm 3 m/S 744 mmHg 59%
15:00 +26°C° 0 mm 3 m/S 744 mmHg 58%
16:00 +26°C° 0 mm 3 m/S 744 mmHg 57%
17:00 +26°C° 0 mm 3 m/S 743 mmHg 56%
18:00 +25°C° 0 mm 3 m/S 743 mmHg 61%
19:00 +23°C° 0 mm 2 m/S 743 mmHg 65%
20:00 +20°C° 0 mm 2 m/S 743 mmHg 69%
21:00 +20°C° 0 mm 2 m/S 743 mmHg 70%
22:00 +19°C° 0 mm 2 m/S 744 mmHg 70%
23:00 +18°C° 0 mm 2 m/S 744 mmHg 70%

übermorgen, 31 Juli, Samstag

Zeit Temperatur Niederschläge Wind Luftdruck Luftfeuchtigkeit
00:00 +18°C° 0 mm 2 m/S 744 mmHg 72%
01:00 +18°C° 0 mm 2 m/S 744 mmHg 73%
02:00 +17°C° 0 mm 3 m/S 743 mmHg 74%
03:00 +17°C° 0 mm 3 m/S 744 mmHg 75%
04:00 +17°C° 0 mm 3 m/S 744 mmHg 75%
05:00 +17°C° 0 mm 2 m/S 744 mmHg 76%
06:00 +18°C° 0 mm 2 m/S 744 mmHg 73%
07:00 +20°C° 0 mm 2 m/S 744 mmHg 69%
08:00 +23°C° 0 mm 2 m/S 744 mmHg 66%
09:00 +24°C° 0 mm 2 m/S 744 mmHg 61%
10:00 +26°C° 0 mm 2 m/S 744 mmHg 56%
11:00 +27°C° 0 mm 2 m/S 744 mmHg 51%
12:00 +28°C° 0 mm 2 m/S 744 mmHg 49%
13:00 +29°C° 0 mm 2 m/S 744 mmHg 48%
14:00 +29°C° 0 mm 2 m/S 743 mmHg 46%
15:00 +29°C° 0.1 mm 2 m/S 743 mmHg 49%
16:00 +29°C° 0.1 mm 2 m/S 742 mmHg 51%
17:00 +29°C° 0.1 mm 2 m/S 742 mmHg 54%
18:00 +26°C° 6.3 mm 2 m/S 742 mmHg 68%
19:00 +23°C° 6.3 mm 2 m/S 742 mmHg 81%
20:00 +19°C° 6.3 mm 2 m/S 742 mmHg 95%
21:00 +19°C° 2.4 mm 2 m/S 743 mmHg 95%
22:00 +20°C° 2.4 mm 1 m/S 743 mmHg 96%
23:00 +18°C° 2.4 mm 0 m/S 743 mmHg 96%

1 August, Sonntag

Zeit Temperatur Niederschläge Wind Luftdruck Luftfeuchtigkeit
00:00 +19°C° 0 mm 1 m/S 743 mmHg 96%
01:00 +18°C° 0 mm 2 m/S 743 mmHg 96%
02:00 +17°C° 0 mm 2 m/S 743 mmHg 97%
03:00 +17°C° 0 mm 2 m/S 743 mmHg 97%
04:00 +17°C° 0 mm 2 m/S 743 mmHg 97%
05:00 +17°C° 0 mm 2 m/S 743 mmHg 97%
06:00 +18°C° 0 mm 3 m/S 743 mmHg 92%
07:00 +19°C° 0 mm 3 m/S 744 mmHg 88%
08:00 +20°C° 0 mm 3 m/S 744 mmHg 83%
09:00 +22°C° 0 mm 3 m/S 744 mmHg 74%
10:00 +24°C° 0 mm 2 m/S 744 mmHg 66%
11:00 +26°C° 0 mm 2 m/S 744 mmHg 57%
12:00 +26°C° 0 mm 2 m/S 744 mmHg 55%
13:00 +27°C° 0 mm 2 m/S 744 mmHg 53%
14:00 +27°C° 0 mm 3 m/S 744 mmHg 50%
15:00 +27°C° 0 mm 2 m/S 744 mmHg 55%
16:00 +27°C° 0 mm 2 m/S 744 mmHg 59%
17:00 +27°C° 0 mm 1 m/S 743 mmHg 63%
18:00 +25°C° 0.1 mm 2 m/S 743 mmHg 68%
19:00 +23°C° 0.1 mm 2 m/S 742 mmHg 73%
20:00 +21°C° 0.1 mm 2 m/S 742 mmHg 79%
21:00 +20°C° 2.9 mm 3 m/S 742 mmHg 84%
22:00 +19°C° 2.9 mm 3 m/S 742 mmHg 90%
23:00 +19°C° 2.9 mm 4 m/S 742 mmHg 96%

2 August, Montag

Zeit Temperatur Niederschläge Wind Luftdruck Luftfeuchtigkeit
00:00 +18°C° 2.7 mm 3 m/S 742 mmHg 96%
01:00 +18°C° 2.7 mm 2 m/S 741 mmHg 96%
02:00 +17°C° 2.7 mm 0 m/S 741 mmHg 96%
03:00 +18°C° 0 mm 1 m/S 741 mmHg 96%
04:00 +18°C° 0 mm 1 m/S 740 mmHg 96%
05:00 +18°C° 0 mm 1 m/S 740 mmHg 96%
06:00 +17°C° 0.1 mm 2 m/S 740 mmHg 95%
07:00 +18°C° 0.1 mm 2 m/S 741 mmHg 94%
08:00 +18°C° 0.1 mm 3 m/S 741 mmHg 93%
09:00 +18°C° 0.2 mm 4 m/S 741 mmHg 93%
10:00 +16°C° 0.2 mm 5 m/S 742 mmHg 93%
11:00 +15°C° 0.2 mm 6 m/S 742 mmHg 94%
12:00 +16°C° 0.3 mm 5 m/S 743 mmHg 89%
13:00 +17°C° 0.3 mm 5 m/S 743 mmHg 84%
14:00 +19°C° 0.3 mm 5 m/S 744 mmHg 80%
15:00 +20°C° 0.1 mm 4 m/S 744 mmHg 75%
16:00 +21°C° 0.1 mm 4 m/S 744 mmHg 71%
17:00 +21°C° 0.1 mm 3 m/S 744 mmHg 66%
18:00 +20°C° 0.1 mm 3 m/S 744 mmHg 71%
19:00 +19°C° 0.1 mm 3 m/S 744 mmHg 76%
20:00 +18°C° 0.1 mm 2 m/S 744 mmHg 81%
21:00 +17°C° 0 mm 3 m/S 744 mmHg 83%
22:00 +17°C° 0 mm 3 m/S 745 mmHg 86%
23:00 +16°C° 0 mm 3 m/S 745 mmHg 88%

3 August, Dienstag

Zeit Temperatur Niederschläge Wind Luftdruck Luftfeuchtigkeit
00:00 +14°C° 0 mm 3 m/S 745 mmHg 90%
01:00 +14°C° 0 mm 3 m/S 745 mmHg 92%
02:00 +14°C° 0 mm 3 m/S 746 mmHg 94%
03:00 +13°C° 0 mm 3 m/S 746 mmHg 94%
04:00 +13°C° 0 mm 3 m/S 746 mmHg 94%
05:00 +13°C° 0 mm 3 m/S 746 mmHg 94%
06:00 +14°C° 0 mm 3 m/S 746 mmHg 88%
07:00 +17°C° 0 mm 4 m/S 747 mmHg 81%
08:00 +17°C° 0 mm 5 m/S 747 mmHg 74%
09:00 +19°C° 0 mm 5 m/S 747 mmHg 68%
10:00 +20°C° 0 mm 5 m/S 747 mmHg 61%
11:00 +21°C° 0 mm 6 m/S 748 mmHg 55%
12:00 +22°C° 0 mm 6 m/S 748 mmHg 53%
13:00 +22°C° 0 mm 6 m/S 748 mmHg 52%
14:00 +23°C° 0 mm 6 m/S 747 mmHg 50%
15:00 +22°C° 0 mm 5 m/S 748 mmHg 55%
16:00 +22°C° 0 mm 4 m/S 748 mmHg 59%
17:00 +21°C° 0 mm 3 m/S 748 mmHg 64%
18:00 +20°C° 0 mm 2 m/S 748 mmHg 66%
19:00 +19°C° 0 mm 2 m/S 748 mmHg 67%
20:00 +20°C° 0 mm 1 m/S 748 mmHg 69%
21:00 +19°C° 0 mm 1 m/S 748 mmHg 71%
22:00 +18°C° 0 mm 1 m/S 749 mmHg 73%
23:00 +16°C° 0 mm 1 m/S 749 mmHg 75%
Mehr zeigen

Wir brauchen deine Erlaubnis

Meteoprog und unser Service Anbieter werden persönliche Daten aufbewahren, so wie Cookies, Geräte Bezeichnung oder ähnliche Technologien von deinem Gerät und Prozess, so wie Persönliche Daten Inhalte und Werbungen, genauso wie social Media und den Verkehr zu analysieren.

  • Aufbewahrung und/oder Zugang zu deiner Geräte Informationen.

    Cookies, Geräte Bezeichnung oder andere Informationen, können aufbewahrt oder Zugang zu deinem Gerät erhalten, für den Grund, der oben angegeben wird.

  • Personalisierte Werbung und Inhalte, Messungen, Einblick in das Publikum und Produkt Entwicklung.

    Werbungen und Inhalte können personalisiert werden, basierend auf ein Profil. Mehr Daten können besser personalisierte Werbungen und Inhalte hinzufügen. Werbung und Inhalte können gezeigt und gemessen werden. Einblicke über das Publikum, welche die Werbung gesehen haben und den Inhalt, können abgeleitet werden. So wie Daten können genutzt werden, um es zu verbessern oder die Benutzer Erfahrung zu verbessern das System und die Software.

Wenn du “Ich stimme zu” klickst, erlaubst du uns, die Cookies zu benutzen die Geräte Bezeichnung, den Web oder ähnliche Technologien zu benutzen. Deine Settings, können in deinem Gerät bei deinem Browser geändert werden.

Für den bestimmten Zweck, berechtigten Interessen beruhen darauf, mehr als auf den Inhalt. Du kannst mehr darüber in unseren Privaten und Cookie Politik lesen.